Location: *
(34.8620°S, 39.3380°E)
Time: 08:18:52
(UTC+00:00)

SAOCOM 1-B - Pass Details

Date: 30 May 2022
Orbit: 621 x 623 km, 97.9° (Epoch: 06 July)

Event Time Altitude Azimuth Distance (km) Brightness Sun altitude
Rises 03:14:14 0° 163° (SSE) 2,938 ? -13.4°
Reaches altitude 10° 03:16:30 10° 158° (SSE) 2,023 ? -13.0°
Maximum altitude 03:20:49 54° 80° (E) 767 ? -12.1°
Drops below altitude 10° 03:25:05 10° 2° (N) 1,996 ? -11.3°
Sets 03:27:17 0° 357° (N) 2,894 ? -10.9°
